Fosston, MN

12:41 AM CDT on October 19, 2017 (GMT -0500)
Fosston Municipal

Weather History for KFSE - December, 2011

Change the Weather History Date:

Friday, December 16, 2011

  Actual Average Record
Temperature  
Mean Temperature 14 °F -  
Max Temperature 23 °F 20 °F 46 °F (2001)
Min Temperature 6 °F 0 °F -27 °F (1963)
Degree Days  
Heating Degree Days 50    
Moisture  
Dew Point 8 °F    
Average Humidity 81    
Maximum Humidity 92    
Minimum Humidity 63    
Precipitation  
Precipitation 0.00 in - - ()
Sea Level Pressure  
Sea Level Pressure 30.32 in    
Wind  
Wind Speed 0 mph (South)    
Max Wind Speed 7 mph    
Max Gust Speed -    
Visibility 9 miles    
Events Snow    
Averages and records for this station are not official NWS values.
T = Trace of Precipitation, MM = Missing Value Source: NWS Daily Summary

Daily Weather History Graph

Daily Weather History Graph

Search for Another Location

Airport or City:

Trip Planner

Search our weather history database for the weather conditions in past years. The results will help you decide how hot, cold, wet, or windy it might be!

Date:

Astronomy

Dec. 16, 2011 Rise Set
Actual Time 8:05 AM CST 4:32 PM CST
Civil Twilight 7:29 AM CST 5:08 PM CST
Nautical Twilight 6:49 AM CST 5:47 PM CST
Astronomical Twilight 6:12 AM CST 6:24 PM CST
Moon 11:32 PM CST (12/16) 11:28 AM CST (12/16)
Length of Visible Light 9h 39m
Length of Day
8h 27m
Waning Gibbous, 64% of the Moon is Illuminated
Dec 16
Waning Gibbous
Dec 17
Last Quarter
Dec 24
New
Jan 1
First Quarter
Jan 9
Full

Hourly Weather History & Observations

Time (CST) Temp. Windchill Dew Point Humidity Pressure Visibility Wind Dir Wind Speed Gust Speed Precip Events Conditions
12:15 AM 6.8 °F - 3.2 °F 85% 30.32 in 10.0 mi Calm Calm - N/A   Clear
12:35 AM 6.8 °F - 3.2 °F 85% 30.33 in 10.0 mi Calm Calm - N/A   Clear
12:56 AM 6.8 °F - 3.2 °F 85% 30.33 in 10.0 mi Calm Calm - N/A   Scattered Clouds
1:15 AM 6.8 °F - 3.2 °F 85% 30.33 in 10.0 mi Calm Calm - N/A   Mostly Cloudy
1:35 AM 6.8 °F - 3.2 °F 85% 30.32 in 10.0 mi Calm Calm - N/A   Overcast
1:56 AM 8.6 °F - 5.0 °F 85% 30.33 in 5.0 mi Calm Calm - N/A Snow Light Snow
2:15 AM 8.6 °F - 3.2 °F 79% 30.33 in 10.0 mi Calm Calm - N/A   Overcast
2:35 AM 8.6 °F - 3.2 °F 79% 30.33 in 10.0 mi Calm Calm - N/A   Overcast
3:15 AM 8.6 °F - 5.0 °F 85% 30.33 in 10.0 mi Calm Calm - N/A   Overcast
3:35 AM 8.6 °F - 5.0 °F 85% 30.34 in 10.0 mi Calm Calm - N/A   Overcast
4:15 AM 8.6 °F - 5.0 °F 85% 30.32 in 10.0 mi Calm Calm - N/A   Overcast
4:35 AM 8.6 °F - 5.0 °F 85% 30.32 in 10.0 mi Calm Calm - N/A   Overcast
4:55 AM 8.6 °F - 5.0 °F 85% 30.33 in 10.0 mi Calm Calm - N/A   Overcast
5:15 AM 8.6 °F - 5.0 °F 85% 30.33 in 10.0 mi Calm Calm - N/A   Overcast
5:35 AM 8.6 °F - 5.0 °F 85% 30.33 in 10.0 mi Calm Calm - N/A   Overcast
5:55 AM 8.6 °F - 5.0 °F 85% 30.33 in 7.0 mi Calm Calm - N/A Snow Light Snow
6:15 AM 8.6 °F - 5.0 °F 85% 30.34 in 5.0 mi Calm Calm - N/A Snow Light Snow
6:35 AM 8.6 °F - 5.0 °F 85% 30.34 in 7.0 mi Calm Calm - N/A   Overcast
6:55 AM 8.6 °F - 5.0 °F 85% 30.34 in 10.0 mi Calm Calm - N/A   Overcast
7:55 AM 8.6 °F - 5.0 °F 85% 30.34 in 5.0 mi Calm Calm - N/A Snow Light Snow
8:55 AM 8.6 °F - 6.8 °F 92% 30.35 in 4.0 mi Calm Calm - N/A Snow Light Snow
9:15 AM 8.6 °F - 6.8 °F 92% 30.36 in 5.0 mi Calm Calm - N/A Snow Light Snow
9:35 AM 10.4 °F - 6.8 °F 85% 30.36 in 10.0 mi Calm Calm - N/A   Overcast
9:55 AM 10.4 °F - 6.8 °F 85% 30.36 in 7.0 mi Calm Calm - N/A   Overcast
10:15 AM 12.2 °F - 10.4 °F 92% 30.36 in 10.0 mi Calm Calm - N/A   Overcast
10:35 AM 15.8 °F - 12.2 °F 86% 30.36 in 10.0 mi Calm Calm - N/A   Overcast
10:55 AM 17.6 °F - 12.2 °F 79% 30.37 in 10.0 mi Calm Calm - N/A   Scattered Clouds
11:15 AM 17.6 °F - 10.4 °F 73% 30.36 in 10.0 mi Calm Calm - N/A   Clear
11:35 AM 17.6 °F - 12.2 °F 79% 30.35 in 10.0 mi Calm Calm - N/A   Clear
11:55 AM 19.4 °F - 12.2 °F 74% 30.34 in 10.0 mi Calm Calm - N/A   Clear
12:15 PM 19.4 °F - 12.2 °F 74% 30.34 in 10.0 mi Calm Calm - N/A   Mostly Cloudy
12:35 PM 19.4 °F - 10.4 °F 68% 30.33 in 10.0 mi Calm Calm - N/A   Overcast
12:55 PM 21.2 °F - 12.2 °F 68% 30.32 in 10.0 mi Calm Calm - N/A   Overcast
1:15 PM 21.2 °F - 12.2 °F 68% 30.32 in 10.0 mi Calm Calm - N/A Snow Light Snow
1:35 PM 21.2 °F - 12.2 °F 68% 30.31 in 10.0 mi Calm Calm - N/A Snow Light Snow
2:15 PM 23.0 °F - 12.2 °F 63% 30.30 in 10.0 mi Calm Calm - N/A   Clear
2:35 PM 21.2 °F - 12.2 °F 68% 30.30 in 10.0 mi Calm Calm - N/A   Clear
2:55 PM 21.2 °F - 12.2 °F 68% 30.29 in 10.0 mi Calm Calm - N/A   Clear
3:35 PM 19.4 °F - 10.4 °F 68% 30.30 in 10.0 mi Calm Calm - N/A   Clear
3:55 PM 17.6 °F - 10.4 °F 73% 30.30 in 10.0 mi Calm Calm - N/A   Clear
4:35 PM 15.8 °F - 10.4 °F 79% 30.30 in 10.0 mi Calm Calm - N/A   Clear
4:55 PM 14.0 °F - 8.6 °F 79% 30.29 in 10.0 mi Calm Calm - N/A   Clear
5:15 PM 12.2 °F - 8.6 °F 85% 30.29 in 10.0 mi Calm Calm - N/A   Clear
5:35 PM 12.2 °F - 8.6 °F 85% 30.28 in 10.0 mi Calm Calm - N/A   Mostly Cloudy
5:55 PM 12.2 °F - 8.6 °F 85% 30.28 in 10.0 mi Calm Calm - N/A   Scattered Clouds
6:14 PM 12.2 °F - 8.6 °F 85% 30.28 in 10.0 mi Calm Calm - N/A   Scattered Clouds
6:35 PM 12.2 °F - 8.6 °F 85% 30.28 in 10.0 mi Calm Calm - N/A   Scattered Clouds
6:55 PM 12.2 °F - 8.6 °F 85% 30.28 in 10.0 mi Calm Calm - N/A   Overcast
7:16 PM 12.2 °F - 8.6 °F 85% 30.28 in 10.0 mi Calm Calm - N/A   Overcast
7:35 PM 14.0 °F - 10.4 °F 86% 30.27 in 10.0 mi Calm Calm - N/A   Overcast
7:55 PM 15.8 °F - 10.4 °F 79% 30.26 in 10.0 mi Calm Calm - N/A   Overcast
8:15 PM 15.8 °F - 10.4 °F 79% 30.26 in 10.0 mi Calm Calm - N/A   Overcast
8:35 PM 15.8 °F - 10.4 °F 79% 30.25 in 10.0 mi Calm Calm - N/A   Overcast
8:55 PM 15.8 °F - 10.4 °F 79% 30.24 in 10.0 mi Calm Calm - N/A   Overcast
9:15 PM 15.8 °F 6.1 °F 10.4 °F 79% 30.23 in 10.0 mi South 6.9 mph - N/A   Overcast
9:35 PM 15.8 °F 5.1 °F 10.4 °F 79% 30.23 in 10.0 mi South 8.1 mph - N/A   Overcast
9:55 PM 15.8 °F 7.2 °F 10.4 °F 79% 30.23 in 10.0 mi South 5.8 mph - N/A   Overcast
10:15 PM 17.6 °F 9.3 °F 10.4 °F 73% 30.22 in 10.0 mi South 5.8 mph - N/A   Overcast
10:35 PM 17.6 °F 8.2 °F 10.4 °F 73% 30.21 in 10.0 mi SSW 6.9 mph - N/A   Overcast
10:55 PM 17.6 °F 5.7 °F 10.4 °F 73% 30.21 in 10.0 mi SSW 10.4 mph - N/A   Overcast
11:15 PM 17.6 °F 6.4 °F 12.2 °F 79% 30.20 in 10.0 mi SSW 9.2 mph - N/A   Overcast
11:35 PM 17.6 °F 7.3 °F 12.2 °F 79% 30.20 in 10.0 mi SSW 8.1 mph - N/A   Overcast